Probability
0 90 100 100 100 100 100 100 100 100 100 100 100 100 100 100 100 100 100 100 100 100 100 100 100 100 100 100 100 100 100 100 100 100 100 100 100 100 100 100 100 100 100
10 100 100 100 100 100 100 100 100 100 100 100 100 100 100 100 100 100 100 100 100 100 100 100 100 100 100 100 94 94 84 90 97 97 100 100 100 100 100 97 100 100 100
84 100 100 100 100 100 100 100 100 100 100 100 100 100 100 100 100 100 100 100 100 100 100 100 97 94 94 94 87 81 71 77 84 87 90 77 97 100 100 100 100 100 100
100 100 100 100 100 100 100 100 100 100 100 100 100 100 100 100 100 100 100 100 100 100 100 94 90 81 77 68 58 52 45 39 52 65 39 65 84 97 100 100 100 100 100
97 100 100 100 100 100 100 100 100 100 100 100 100 100 100 100 100 100 100 100 97 97 90 81 68 68 52 42 32 29 26 29 45 35 16 35 58 90 100 100 100 100 100
100 100 100 100 100 100 100 100 100 100 100 100 100 100 100 100 100 100 100 97 97 97 84 71 61 45 35 23 13 10 16 19 23 16 23 29 48 87 97 100 100 100 100
94 100 100 100 100 100 100 100 100 100 100 100 100 100 100 100 100 100 100 97 97 90 84 65 48 32 23 13 10 10 3 19 3 29 32 35 48 90 97 100 97 100 100
90 97 100 100 100 100 100 100 100 100 100 100 100 100 100 100 100 100 100 97 97 90 77 58 35 26 19 19 10 10 6 19 23 35 52 48 48 94 100 100 97 100 100
94 97 100 100 100 100 100 100 100 100 100 100 100 100 100 100 100 100 100 97 97 90 74 52 35 26 16 16 16 13 10 19 16 29 35 45 58 87 94 87 87 87 90
90 100 97 100 100 100 100 100 100 100 100 100 100 100 100 100 100 100 100 100 97 84 68 52 42 23 19 19 16 10 13 10 6 13 26 32 71 90 87 90 77 74 74
90 94 90 94 97 100 100 100 100 100 100 100 100 100 100 100 100 100 100 97 87 77 65 61 55 39 26 13 13 13 6 3 0 0 0 26 58 81 81 71 58 58 65
52 87 87 90 97 97 100 100 100 100 100 100 100 100 94 45 35 87 77 94 84 77 68 61 61 39 19 3 3 3 0 0 0 0 0 19 55 68 65 68 52 45 45
3 55 81 84 94 94 90 97 87 84 84 74 68 74 48 6 6 35 13 42 61 71 55 29 23 6 3 3 0 0 0 0 0 0 0 19 52 61 61 61 52 35 32
6 19 61 90 94 87 71 84 77 71 61 65 45 35 19 0 0 0 0 3 13 13 6 6 0 0 0 0 0 0 0 0 0 0 0 13 61 65 65 61 55 42 42
10 16 39 81 94 81 65 71 71 61 45 26 23 19 10 0 0 0 0 0 0 0 0 0 0 0 0 0 0 0 0 0 0 0 0 6 48 58 58 48 48 45 42
32 16 26 61 81 74 68 71 58 48 32 16 16 10 3 0 0 0 0 0 0 0 0 0 0 0 0 0 0 0 0 0 0 0 0 0 10 19 35 32 32 32 26
58 26 13 35 45 55 52 58 45 29 19 13 6 0 0 0 0 3 0 0 0 0 0 0 0 0 0 0 0 0 0 0 0 0 0 0 0 0 6 10 16 16 13
71 45 19 45 39 32 42 39 35 23 10 10 3 3 0 3 3 0 0 0 0 0 0 0 0 0 0 0 0 0 0 0 0 0 0 0 0 0 0 0 0 3 3
71 68 52 48 42 42 35 29 16 6 6 3 3 3 3 3 3 0 0 0 0 0 0 0 0 0 0 0 0 0 0 0 0 0 0 0 0 0 0 0 0 0 0
74 74 65 55 39 42 29 32 16 3 3 3 3 3 3 6 3 0 0 0 0 0 0 0 0 0 0 0 0 0 0 0 0 0 0 0 0 0 0 0 0 0 0
52 77 71 65 61 52 45 39 10 10 10 6 3 3 3 3 0 0 0 0 0 0 0 0 0 0 0 0 0 0 0 0 0 0 0 0 0 0 0 0 0 0 0
32 52 65 68 61 52 45 32 6 3 3 3 0 0 0 0 0 0 0 0 0 0 0 0 0 0 0 0 0 0 0 0 0 0 0 0 0 0 0 0 0 0 0
13 35 48 58 48 39 26 6 3 3 0 0 0 0 0 0 0 0 0 0 0 0 0 0 0 0 0 0 0 0 0 0 0 0 0 0 0 0 0 0 0 0 0
6 6 26 23 26 19 10 3 3 3 3 0 0 0 0 0 0 0 0 0 0 0 0 0 0 0 0 0 0 0 0 0 0 0 0 0 0 0 0 0 0 0 0
3 0 3 3 6 10 10 3 3 0 0 0 0 0 0 0 0 0 0 0 0 0 0 0 0 0 0 0 0 0 0 0 0 0 0 0 0 0 0 0 0 0 0
10 3 0 0 0 0 0 0 0 0 0 0 0 0 0 0 0 0 0 0 0 0 0 0 0 0 0 0 0 0 0 0 0 0 0 0 0 0 0 0 0 0 0
Height
5890 5890 5890 5891 5891 5892 5892 5892 5892 5892 5893 5894 5895 5896 5896 5896 5897 5898 5899 5900 5901 5902 5902 5902 5903 5903 5903 5903 5904 5904 5904 5904 5903 5903 5903 5903 5903 5904 5904 5904 5904 5904 5904
5889 5889 5889 5889 5889 5889 5889 5889 5890 5890 5890 5891 5892 5893 5894 5895 5896 5896 5897 5898 5899 5899 5900 5900 5901 5901 5901 5901 5901 5902 5901 5901 5901 5901 5900 5900 5901 5901 5901 5901 5901 5901 5901
5888 5888 5888 5888 5888 5888 5888 5888 5888 5888 5889 5889 5890 5891 5892 5893 5894 5894 5895 5895 5896 5897 5897 5898 5898 5898 5898 5899 5899 5899 5899 5898 5898 5898 5898 5898 5898 5898 5898 5898 5898 5898 5898
5887 5887 5887 5887 5887 5886 5886 5886 5886 5887 5887 5888 5888 5889 5890 5891 5891 5892 5893 5893 5894 5894 5895 5895 5895 5895 5896 5896 5896 5896 5896 5896 5895 5895 5895 5895 5894 5894 5894 5894 5894 5894 5894
5887 5887 5887 5887 5886 5886 5885 5885 5885 5886 5886 5886 5887 5887 5888 5889 5889 5890 5890 5891 5891 5892 5892 5892 5892 5892 5893 5893 5894 5894 5893 5893 5892 5892 5892 5891 5891 5891 5891 5891 5891 5891 5891
5887 5887 5887 5886 5886 5886 5885 5885 5885 5885 5885 5885 5886 5886 5886 5887 5887 5888 5888 5889 5889 5889 5889 5889 5889 5889 5890 5890 5891 5891 5890 5890 5890 5889 5889 5888 5888 5888 5888 5888 5888 5888 5887
5888 5887 5887 5886 5886 5886 5885 5885 5885 5885 5885 5885 5885 5885 5885 5885 5886 5886 5886 5886 5886 5886 5886 5886 5886 5886 5887 5887 5888 5888 5887 5887 5886 5886 5885 5885 5885 5885 5885 5884 5884 5884 5884
5888 5888 5887 5887 5886 5885 5885 5885 5884 5884 5884 5884 5884 5884 5884 5884 5884 5884 5884 5884 5884 5884 5883 5883 5883 5883 5883 5884 5884 5884 5884 5883 5883 5883 5882 5882 5882 5881 5881 5881 5881 5881 5881
5888 5888 5887 5886 5886 5885 5885 5884 5884 5884 5883 5883 5883 5883 5882 5882 5882 5882 5882 5881 5881 5881 5880 5880 5879 5879 5880 5880 5881 5881 5880 5880 5880 5879 5879 5879 5878 5878 5878 5878 5877 5877 5877
5888 5888 5887 5886 5885 5885 5884 5884 5883 5883 5882 5882 5882 5882 5881 5881 5880 5880 5880 5879 5878 5878 5877 5877 5876 5876 5876 5876 5877 5877 5876 5876 5876 5875 5875 5875 5875 5874 5874 5874 5874 5874 5874
5888 5887 5887 5886 5885 5885 5884 5883 5883 5882 5882 5881 5881 5880 5880 5879 5879 5878 5877 5877 5876 5875 5874 5873 5873 5872 5873 5873 5873 5873 5872 5872 5872 5872 5871 5871 5871 5871 5870 5870 5870 5870 5870
5888 5887 5887 5886 5885 5884 5884 5883 5883 5882 5881 5880 5880 5879 5878 5877 5877 5876 5875 5874 5873 5872 5871 5870 5870 5869 5869 5869 5869 5868 5868 5868 5868 5867 5867 5867 5867 5867 5866 5866 5866 5865 5865
5887 5887 5886 5886 5885 5884 5884 5883 5882 5881 5880 5879 5878 5877 5876 5875 5874 5873 5872 5871 5870 5869 5868 5867 5866 5866 5865 5865 5865 5864 5864 5863 5863 5863 5863 5863 5863 5862 5862 5861 5861 5860 5860
5887 5886 5886 5885 5885 5884 5883 5882 5881 5880 5878 5877 5876 5875 5874 5872 5871 5870 5869 5868 5867 5866 5865 5864 5863 5862 5861 5860 5860 5859 5859 5858 5858 5858 5857 5857 5857 5856 5856 5855 5854 5854 5853
5886 5886 5885 5885 5884 5883 5882 5880 5879 5878 5876 5875 5873 5872 5871 5869 5868 5867 5866 5865 5864 5862 5861 5860 5859 5857 5856 5855 5854 5853 5853 5852 5851 5851 5850 5850 5850 5849 5849 5848 5847 5846 5845
5884 5884 5883 5883 5882 5881 5880 5878 5877 5875 5873 5872 5870 5869 5867 5866 5864 5863 5862 5860 5859 5858 5857 5856 5854 5853 5851 5849 5848 5847 5846 5845 5844 5844 5843 5843 5842 5841 5840 5839 5838 5837 5836
5882 5881 5881 5880 5879 5878 5876 5875 5873 5871 5869 5868 5866 5864 5862 5861 5859 5858 5857 5855 5854 5853 5852 5850 5849 5847 5846 5844 5843 5841 5840 5839 5838 5837 5836 5835 5834 5832 5831 5830 5828 5827 5825
5879 5878 5878 5876 5875 5874 5872 5870 5869 5867 5865 5863 5860 5858 5857 5855 5853 5852 5851 5849 5848 5847 5845 5844 5843 5841 5839 5838 5836 5834 5833 5831 5830 5828 5827 5826 5824 5822 5820 5819 5817 5816 5814
5875 5875 5874 5873 5871 5869 5867 5865 5863 5860 5858 5856 5853 5851 5850 5848 5846 5845 5844 5842 5841 5840 5838 5837 5835 5834 5832 5830 5828 5826 5824 5823 5821 5819 5818 5816 5814 5811 5809 5807 5805 5803 5802
5871 5870 5869 5868 5866 5864 5862 5859 5857 5854 5851 5848 5846 5844 5841 5839 5837 5836 5835 5834 5833 5832 5831 5829 5828 5826 5824 5822 5820 5818 5816 5814 5812 5809 5807 5805 5803 5800 5798 5795 5793 5791 5789
5866 5865 5864 5863 5861 5859 5856 5854 5851 5847 5844 5841 5837 5834 5831 5830 5829 5827 5827 5826 5825 5823 5823 5821 5819 5818 5816 5814 5812 5809 5807 5804 5802 5799 5796 5794 5791 5788 5785 5783 5780 5778 5775
5860 5859 5859 5857 5856 5854 5850 5848 5845 5841 5838 5833 5828 5824 5820 5820 5821 5820 5819 5818 5816 5815 5814 5812 5810 5809 5807 5805 5803 5800 5797 5795 5792 5789 5785 5782 5779 5775 5772 5769 5767 5764 5760
5853 5853 5852 5851 5849 5847 5844 5840 5837 5833 5828 5825 5821 5818 5815 5813 5813 5812 5811 5809 5808 5807 5805 5803 5801 5799 5797 5795 5793 5790 5787 5784 5781 5778 5774 5770 5766 5763 5759 5755 5752 5748 5745
5846 5846 5845 5844 5842 5839 5837 5833 5829 5824 5819 5815 5813 5810 5808 5806 5805 5804 5803 5801 5800 5798 5796 5794 5792 5790 5787 5785 5782 5779 5776 5772 5769 5766 5763 5758 5753 5749 5745 5740 5736 5731 5727
5839 5838 5837 5836 5834 5832 5829 5826 5821 5816 5811 5807 5804 5802 5799 5799 5798 5796 5795 5794 5792 5790 5787 5785 5782 5779 5776 5773 5770 5767 5763 5759 5756 5753 5750 5746 5740 5734 5729 5724 5718 5713 5709
5832 5831 5830 5828 5826 5824 5821 5817 5812 5807 5802 5798 5797 5795 5793 5791 5790 5789 5787 5785 5783 5781 5778 5775 5772 5768 5765 5761 5757 5754 5750 5746 5741 5737 5734 5730 5726 5720 5713 5706 5700 5694 5689
Wind_Speed
8 9 9 9 9 9 10 10 10 10 11 11 12 13 13 14 14 14 14 14 14 15 15 15 16 17 17 16 16 16 16 16 16 16 16 16 16 15 15 15 15 15 16
7 8 8 8 8 8 7 7 8 8 9 9 10 11 12 13 14 15 15 15 16 16 17 17 17 18 18 17 18 17 17 17 17 17 17 17 17 17 16 16 17 17 17
5 6 7 7 7 6 6 5 5 5 6 7 7 8 9 10 11 13 14 15 15 16 17 17 18 18 18 18 18 18 17 17 17 18 18 18 18 17 17 17 17 17 18
4 5 5 6 6 5 4 3 3 3 4 4 5 6 7 7 9 10 11 13 14 15 16 17 17 17 17 17 17 17 17 18 18 18 18 18 18 18 17 17 17 17 17
4 4 4 5 4 4 3 3 3 3 3 3 4 4 5 6 8 9 10 12 13 14 15 16 16 16 16 16 16 16 16 17 17 18 18 18 18 17 17 16 16 16 16
4 4 4 4 3 3 3 3 3 3 3 3 4 4 5 6 7 8 9 10 12 13 14 15 16 15 15 15 14 15 15 16 16 17 18 17 17 17 16 16 16 16 17
6 5 5 4 4 3 3 3 2 2 3 3 4 4 5 6 7 8 9 11 12 13 14 15 16 16 16 15 15 15 15 16 16 17 17 18 18 17 17 17 17 17 18
7 7 6 6 5 5 4 4 3 3 3 3 4 4 5 6 7 9 10 11 13 14 15 16 17 17 17 16 16 15 15 16 16 17 18 18 19 19 19 18 19 19 19
8 8 8 8 7 6 6 5 4 4 4 4 4 5 6 6 8 9 10 12 13 14 15 16 17 18 18 17 17 16 16 17 17 18 18 19 19 19 19 19 19 19 20
9 10 10 10 9 8 8 7 6 5 5 5 5 6 6 7 8 9 10 11 12 13 14 15 16 17 17 17 17 17 17 17 18 18 19 19 19 19 20 20 20 21 21
11 11 12 11 11 10 10 9 8 7 6 6 6 6 6 7 7 8 9 10 11 12 13 15 15 16 16 16 17 17 18 18 19 19 19 19 20 20 21 22 22 23 23
10 12 13 12 12 12 11 10 10 9 8 7 7 7 7 7 7 8 9 10 11 12 13 14 15 16 16 16 17 17 18 19 19 20 20 21 21 22 23 24 25 25 26
10 11 12 13 13 12 12 11 11 11 10 9 9 9 9 9 9 9 10 11 12 13 14 15 16 17 18 18 18 19 19 19 20 21 21 22 23 24 25 26 27 28 30
9 11 12 13 15 14 14 13 12 12 12 12 11 11 10 11 11 11 12 13 13 14 15 17 18 20 21 21 22 22 22 22 23 23 24 25 26 27 28 30 31 32 33
9 11 13 15 16 17 16 16 15 15 15 15 14 14 13 13 14 14 14 15 16 17 17 19 20 22 23 25 26 26 26 26 26 27 28 29 30 31 32 34 35 36 37
11 12 14 16 18 19 19 19 19 18 18 18 18 18 17 17 17 17 17 17 18 19 21 22 23 25 25 27 28 29 30 31 31 32 33 33 34 35 36 37 38 39 40
14 15 15 18 19 21 21 22 22 22 21 22 22 22 22 22 21 21 21 20 21 22 23 24 26 28 29 29 30 31 33 34 35 36 37 38 39 40 40 41 42 42 43
15 16 17 20 21 22 24 25 26 26 26 26 26 26 27 28 27 25 25 24 24 25 25 27 29 31 31 31 32 34 36 37 38 39 40 41 42 43 44 44 45 45 46
17 18 20 22 23 25 27 28 29 30 29 29 30 30 31 31 30 29 28 27 28 28 28 29 30 31 32 33 35 36 38 39 40 42 43 44 45 46 47 48 48 48 49
19 20 22 24 25 27 29 30 32 32 32 32 33 32 32 32 31 30 30 29 29 29 30 31 32 32 33 35 36 38 39 40 41 43 44 45 47 48 50 51 51 52 52
22 23 24 25 27 29 31 33 35 36 35 36 36 36 34 31 31 30 30 30 30 31 32 32 32 33 33 34 36 38 40 42 43 44 45 47 49 50 51 52 53 54 56
24 24 25 27 28 30 33 36 39 40 39 40 39 37 33 30 30 29 29 29 30 31 32 33 34 34 35 37 39 40 41 43 45 46 47 49 51 52 54 55 56 58 59
25 26 27 28 31 34 37 39 41 42 42 43 39 36 33 30 28 27 27 29 30 32 34 35 36 37 39 40 41 43 44 45 46 47 49 51 53 55 57 58 60 61 62
27 28 30 32 35 37 39 41 43 44 46 43 38 36 33 30 29 28 29 30 32 34 35 37 39 41 42 43 45 46 47 48 49 50 51 53 56 58 60 62 63 64 65
31 32 35 37 38 39 41 43 45 47 48 43 39 35 33 32 30 30 31 32 34 36 38 41 43 44 46 47 48 49 51 52 53 54 55 57 59 61 63 65 66 67 68
34 36 38 40 40 41 43 45 46 46 44 42 39 36 34 32 32 32 34 36 38 40 43 45 47 49 50 51 52 54 55 57 58 59 60 61 62 63 65 67 68 69 70
Wind_Direction
282 282 284 283 277 274 273 273 272 271 271 271 270 271 273 276 277 278 281 283 286 289 290 292 292 292 292 291 289 288 284 281 281 281 281 280 279 278 279 278 278 278 279
286 285 287 284 279 276 276 277 273 273 273 273 274 274 273 273 275 277 279 281 284 286 288 290 290 290 290 290 290 289 286 283 282 281 281 280 280 280 279 279 278 277 276
303 296 291 287 284 281 282 283 285 286 285 284 284 283 280 278 279 279 280 281 283 286 288 289 290 290 289 290 289 288 286 284 282 281 280 280 280 280 279 278 277 277 276
338 320 301 293 290 288 291 299 307 311 308 304 300 298 296 293 291 289 288 289 290 290 290 290 290 290 290 290 288 287 285 284 282 280 279 278 278 279 278 277 277 277 278
356 337 318 311 310 308 313 319 323 329 331 330 324 318 313 309 304 300 298 297 297 296 295 294 294 294 293 292 289 287 284 282 280 279 279 278 278 278 279 279 278 279 280
9 351 339 340 341 336 335 338 343 352 359 355 347 337 328 321 315 310 306 303 301 300 298 298 297 297 297 295 292 289 285 282 280 280 279 279 279 279 279 279 279 280 280
22 9 1 357 356 355 351 349 349 353 352 347 342 335 326 320 314 310 308 305 302 300 299 298 298 299 298 296 294 291 287 284 281 279 279 280 280 280 280 281 281 281 282
28 15 8 2 356 354 351 346 340 336 329 327 323 319 314 311 308 305 303 300 297 296 297 297 297 297 296 295 294 292 288 285 283 281 282 282 282 282 283 283 283 283 283
32 24 18 11 5 2 358 352 342 331 324 316 309 305 302 302 301 300 297 295 294 293 293 293 294 294 295 295 294 292 288 286 285 284 284 283 282 282 283 285 285 285 284
27 24 20 17 10 2 355 346 336 325 319 313 306 302 299 297 296 294 293 292 291 290 290 290 291 292 294 294 293 291 289 287 286 285 284 283 283 282 283 284 285 285 284
27 25 21 18 12 3 355 346 336 324 313 306 301 296 294 293 292 292 291 290 289 288 288 288 289 290 292 292 291 290 289 288 287 286 285 285 284 284 284 285 285 285 285
22 21 16 11 6 360 353 345 336 325 313 302 293 288 285 284 285 287 291 292 291 290 289 289 289 288 288 288 288 288 288 287 287 285 284 284 283 284 284 285 285 286 286
7 5 4 1 357 353 348 342 334 326 314 302 291 285 282 280 281 284 289 291 291 290 290 291 290 289 288 285 284 284 283 283 282 281 281 281 282 283 284 285 285 286 286
348 352 354 349 344 341 335 332 328 322 314 305 295 287 283 279 278 282 287 289 290 291 292 292 291 289 287 286 283 282 280 280 279 279 279 279 280 281 282 283 283 283 283
331 336 343 341 337 332 326 323 320 317 310 304 298 292 286 282 282 283 284 287 289 290 290 292 292 292 290 288 286 283 281 280 280 281 281 281 281 281 282 282 282 282 282
314 321 329 332 332 329 320 316 314 311 305 299 296 294 291 288 286 285 287 288 289 291 292 292 292 292 293 292 290 287 285 283 282 281 281 281 281 281 281 282 282 282 282
302 309 316 320 322 321 316 310 306 305 301 298 295 291 289 287 285 285 284 286 289 290 291 291 291 291 291 289 288 287 285 283 282 282 281 282 282 282 282 282 282 282 282
296 300 306 312 315 313 310 308 304 301 301 296 293 290 287 286 282 282 283 284 285 287 288 290 290 289 288 288 287 286 284 283 283 283 282 282 283 283 283 283 283 283 283
292 297 302 306 309 307 305 304 302 297 295 294 291 288 287 284 281 281 282 283 283 284 286 289 290 289 289 288 287 287 286 284 284 284 284 284 284 284 284 284 284 284 283
287 293 298 301 304 305 304 303 302 298 294 290 290 288 283 280 278 278 279 281 281 283 287 289 290 290 290 289 289 289 288 287 287 286 286 285 285 285 285 284 284 284 284
284 289 293 298 301 301 301 301 300 298 293 289 288 289 282 279 277 276 276 281 284 286 289 291 290 291 292 292 292 292 291 289 288 288 288 287 286 285 285 285 284 284 284
280 285 290 293 295 296 296 296 296 295 292 290 289 287 285 281 280 277 279 284 288 290 293 295 296 296 297 298 296 294 292 291 290 289 289 287 286 286 286 285 285 285 285
276 283 287 291 292 292 292 292 291 291 289 288 289 291 290 289 287 284 285 290 292 295 295 298 299 300 300 300 298 296 294 293 291 290 289 289 288 288 287 287 286 286 286
276 281 285 287 288 289 289 288 287 288 285 285 291 295 295 294 296 292 292 294 296 297 297 301 302 302 301 300 299 297 295 294 293 292 291 290 290 289 289 288 288 287 287
275 280 283 285 286 287 287 286 286 286 286 285 295 302 302 298 296 298 297 298 298 299 300 302 303 302 301 300 299 297 296 295 294 293 292 291 291 290 290 290 289 288 287
275 278 281 283 283 285 285 286 286 287 286 292 302 310 311 306 301 300 300 299 301 303 303 302 302 301 301 299 298 297 296 295 294 293 293 292 291 290 290 289 288 287 286